Location: Cactus School
(34.5700°N, 118.0931°W)
Time: 00:26:06
(UTC-08:00)

Tiros 1 - Pass Details

Date: 01 December 2019
Orbit: 630 x 664 km, 48.4° (Epoch: 11 December)

Event Time Altitude Azimuth Distance (km) Brightness Sun altitude
Rises 08:40:58 0° 231° (SW) 2,935 10.5 19.2°
Reaches altitude 10° 08:43:18 10° 231° (SW) 2,023 9.7 19.5°
Maximum altitude 08:47:58 90° 279° (W) 639 7.5 20.2°
Drops below altitude 10° 08:52:37 10° 52° (NE) 2,014 9.8 20.8°
Sets 08:54:56 0° 53° (NE) 2,921 10.6 21.1°
